EW1107 Weather Reports


Display with metric or nautical units.
time (UTC)temp
F
wind
direction
speed
MPH
gust
MPH
rain 1hr
in
rain 24hr
in
rain mn
in
humidity
%
barometer
mb
20260505095559 78 225 0.0 17.0 0.00 0.00 0.00 37 1007.5
20260505095057 78 270 7.0 17.0 0.00 0.00 0.00 36 1007.5
20260505094053 77 173 0.0 7.0 0.00 0.00 0.00 37 1007.6
20260505093552 76 229 2.0 9.0 0.00 0.00 0.00 37 1007.7
20260505093052 76 228 2.0 14.0 0.00 0.00 0.00 37 1007.8
20260505092551 77 218 1.0 14.0 0.00 0.00 0.00 39 1007.8
20260505092051 76 262 5.0 18.0 0.00 0.00 0.00 38 1007.8
20260505091615 77 221 4.0 10.0 0.00 0.00 0.00 37 1007.8
20260505091052 78 219 2.0 9.0 0.00 0.00 0.00 37 1007.9
20260505090548 77 264 0.0 0.0 0.00 0.00 0.00 36 1008.0
20260505090104 76 344 0.0 13.0 0.00 0.00 0.00 38 1008.0
20260505085548 76 312 3.0 15.0 0.00 0.00 0.00 38 1008.1
20260505085048 75 227 7.0 15.0 0.00 0.00 0.00 39 1008.2
20260505084601 75 233 5.0 14.0 0.00 0.00 0.00 39 1008.2
20260505084044 75 209 0.0 11.0 0.00 0.00 0.00 38 1008.3
20260505083546 77 232 2.0 14.0 0.00 0.00 0.00 36 1008.3
20260505083059 75 318 9.0 14.0 0.00 0.00 0.00 40 1008.3
20260505082542 75 276 0.0 13.0 0.00 0.00 0.00 39 1008.4
20260505082040 73 261 0.0 13.0 0.00 0.00 0.00 40 1008.5
20260505081554 74 184 2.0 13.0 0.00 0.00 0.00 40 1008.5
20260505081039 74 237 4.0 13.0 0.00 0.00 0.00 41 1008.5
20260505080537 73 277 1.0 11.0 0.00 0.00 0.00 41 1008.5
20260505080050 74 226 0.0 15.0 0.00 0.00 0.00 40 1008.5
20260505075533 73 188 5.0 15.0 0.00 0.00 0.00 40 1008.6
20260505075032 72 171 0.0 12.0 0.00 0.00 0.00 42 1008.5
20260505074531 71 259 4.0 12.0 0.00 0.00 0.00 42 1008.6
20260505073529 71 284 3.0 14.0 0.00 0.00 0.00 42 1008.6
20260505073039 71 233 5.0 14.0 0.00 0.00 0.00 42 1008.6
20260505072527 71 236 5.0 12.0 0.00 0.00 0.00 43 1008.7
20260505072025 70 157 4.0 15.0 0.00 0.00 0.00 42 1008.6
20260505071539 70 209 5.0 14.0 0.00 0.00 0.00 43 1008.7
20260505071023 70 258 0.0 12.0 0.00 0.00 0.00 44 1008.6
20260505070525 69 151 1.0 12.0 0.00 0.00 0.00 45 1008.6
20260505070023 69 221 0.0 1.0 0.00 0.00 0.00 45 1008.7
20260505065518 69 285 0.0 0.0 0.00 0.00 0.00 46 1008.7
20260505065018 69 234 0.0 9.0 0.00 0.00 0.00 46 1008.7
20260505064517 68 215 2.0 9.0 0.00 0.00 0.00 48 1008.7
20260505064019 68 203 0.0 8.0 0.00 0.00 0.00 48 1008.8
20260505063515 68 182 2.0 8.0 0.00 0.00 0.00 47 1008.8
20260505063014 68 203 0.0 0.0 0.00 0.00 0.00 47 1008.9
20260505062512 68 234 0.0 0.0 0.00 0.00 0.00 48 1009.0
20260505062011 67 248 0.0 0.0 0.00 0.00 0.00 48 1008.9
20260505061513 67 229 0.0 0.0 0.00 0.00 0.00 49 1008.9
20260505061008 67 281 0.0 1.0 0.00 0.00 0.00 49 1008.9
20260505060506 66 189 0.0 8.0 0.00 0.00 0.00 50 1008.9
20260505060005 66 192 1.0 8.0 0.00 0.00 0.00 51 1008.9
20260505055503 65 185 0.0 11.0 0.00 0.00 0.00 52 1008.9
20260505055002 65 198 4.0 11.0 0.00 0.00 0.00 52 1009.0
20260505054607 64 196 1.0 10.0 0.00 0.00 0.00 54 1009.0
20260505054059 64 195 4.0 10.0 0.00 0.00 0.00 54 1009.0
20260505053100 64 171 2.0 10.0 0.00 0.00 0.00 55 1009.0
20260505052557 63 165 5.0 10.0 0.00 0.00 0.00 56 1009.0
20260505052056 63 165 5.0 8.0 0.00 0.00 0.00 56 1009.0
20260505051555 63 184 0.0 0.0 0.00 0.00 0.00 57 1009.1
20260505051054 63 190 0.0 0.0 0.00 0.00 0.00 59 1009.1
20260505050553 62 192 0.0 0.0 0.00 0.00 0.00 62 1009.2
20260504173033 75 213 0.0 9.0 0.00 0.00 0.00 39 1009.9
20260504141016 80 171 8.0 24.0 0.00 0.00 0.00 35 1010.6
20260504140517 80 212 8.0 24.0 0.00 0.00 0.00 34 1010.6
20260504130505 78 260 14.0 23.0 0.00 0.00 0.00 36 1011.1
20260504120104 78 198 12.0 24.0 0.00 0.00 0.00 37 1011.5
20260504110551 78 306 14.0 23.0 0.00 0.00 0.00 37 1012.0
20260504100544 75 244 12.0 25.0 0.00 0.00 0.00 40 1012.6